{"data":{"norad_id":40109,"epoch":"2026-09-20T04:46:55.197408Z","epoch_age_seconds":63166,"freshness":"FRESH","line1":"1 40109U 14047A   26263.19924997  .00000026  00000+0  12204-3 0  9998","line2":"2 40109  63.3768 134.1539 0398537  15.2100 346.0508 13.45449623595229","mean_motion":13.45449623,"eccentricity":0.0398537,"inclination_deg":63.3768,"raan_deg":134.1539,"arg_perigee_deg":15.21,"mean_anomaly_deg":346.0508,"bstar":0.00012204,"rev_number":59522,"period_min":107.02741859552,"perigee_km":791.45254233253,"apogee_km":1386.6424019263,"semimajor_km":7467.1844721294,"source":"CELESTRAK","updated_at":"2026-09-20T09:00:14.019245Z"}}